Location: Newark
(12.4436°N, 0.6167°W)
Time: 07:39:12
(UTC+00:00)

Vanguard 2 - Pass Details

Date: 15 December 2019
Orbit: 553 x 2938 km, 32.9° (Epoch: 21 January)

Event Time Altitude Azimuth Distance (km) Brightness Sun altitude
Rises 20:45:11 0° 225° (SW) 3,587 11.6 -43.2°
Reaches altitude 10° 20:47:21 10° 221° (SW) 2,862 10.9 -43.7°
Enters shadow 20:50:06 28° 211° (SSW) 2,077 9.9 -44.3°
Maximum altitude 20:54:25 61° 141° (SE) 1,635 - -45.3°
Drops below altitude 10° 21:06:26 10° 64° (ENE) 4,722 - -48.0°
Sets 21:11:02 0° 62° (ENE) 6,071 - -49.1°
